Weather observations for the past three days for
Ocean City, Ocean City Municipal Airport
Imperial (Metric)
Date Time (edt) Wind (mph) Vis. (mi.) Weather Sky Cond. Temperature (ºF) Relative Humidity Wind Chill (°F) Heat Index (°F) Pressure Precipitation (in)
Air Dwpt 6 hour altimeter (in) sea level (mb) 1 hr 3 hr 6 hr
Max. Min.
16 05:53 SW 7 10.00 Fair CLR 81 75.9 85% 87 29.87 1011.5
16 04:53 SW 7 10.00 Fair CLR 82 77 85% 90 29.86 1010.9
16 03:53 SW 8 10.00 Fair CLR 82 77 85% 90 29.85 1010.7
16 02:53 SW 9 10.00 Fair CLR 82.9 77 82% 92 29.85 1010.6
16 01:53 SW 6 10.00 Fair CLR 81 75.9 86 80.1 85% 87 29.85 1010.8
16 00:53 SW 8 10.00 Fair CLR 82.9 77 82% 92 29.86 1011.0
15 23:53 SW 8 10.00 Fair CLR 82.9 75 77% 90 29.87 1011.5
15 22:53 SW 7 10.00 Fair CLR 84 75 74% 92 29.88 1011.7
15 21:53 SW 10 10.00 Fair CLR 84.9 71.1 63% 90 29.89 1012.1
15 20:53 SW 8 10.00 Fair CLR 84.9 75.9 75% 94 29.87 1011.5
15 19:53 SW 7 10.00 Fair CLR 86 75 95 84.9 70% 95 29.87 1011.3
15 18:53 W 6 10.00 Fair CLR 90 72 56% 97 29.87 1011.4
15 17:53 W 10 G 18 10.00 Fair CLR 93 71.1 49% 100 29.85 1010.8
15 16:53 W 7 10.00 Fair CLR 93.9 71.1 48% 101 29.86 1011.1
15 15:53 Vrbl 5 10.00 Fair CLR 90 75 62% 100 29.88 1011.7
15 14:53 S 5 10.00 Fair CLR 88 75.9 68% 99 29.9 1012.3
15 13:53 S 7 10.00 A Few Clouds FEW044 87.1 75.9 88 80.1 70% 98 29.91 1012.8
15 12:53 S 7 10.00 A Few Clouds FEW037 87.1 77 72% 99 29.93 1013.6
15 11:53 S 8 10.00 Fair CLR 84 75.9 77% 93 29.94 1013.7
15 10:53 S 5 10.00 Fair CLR 84.9 77 77% 95 29.93 1013.6
15 09:53 Vrbl 5 10.00 Fair CLR 82.9 75 77% 90 29.94 1013.8
14 22:53 SW 8 10.00 Fair CLR 80.1 75 85% 85 29.99 1015.4
14 21:53 SW 10 G 22 10.00 Fair CLR 80.1 77 90% 86 29.99 1015.4
14 19:53 Vrbl 7 10.00 Fair CLR 79 75.9 82.9 78.1 90% 83 30 1015.8
14 16:53 SW 6 10.00 Fair CLR 82 75.9 82% 89 30.01 1016.3
14 14:53 Vrbl 7 10.00 Fair CLR 82 75 79% 89 30.03 1016.9
14 11:53 S 5 10.00 Fair CLR 80.1 75.9 87% 85 30.08 1018.5
14 08:53 S 6 5.00 Fog/Mist FEW003 75.9 73.9 94% 75 30.08 1018.6
14 07:53 Calm 10.00 Mostly Cloudy BKN003 75.9 75 75.9 73 97% 75 30.08 1018.5
14 06:53 Calm 0.50 Fog VV002 73 73 100% 30.07 1018.2
14 05:53 Calm 0.25 Fog VV002 73 72 96% 30.06 1018.0
14 03:53 Calm 9.00 Overcast OVC004 75 73 94% 73 30.06 1017.9
14 01:53 Calm 10.00 Overcast OVC009 75.9 73.9 75.9 73 94% 75 30.08 1018.4
14 00:53 Calm 2.50 Fog/Mist OVC009 75 73.9 96% 73 30.09 1018.8
13 20:53 Calm 0.25 Fog VV002 73 72 96% 30.09 1019.0
13 19:53 SE 3 1.25 Fog/Mist BKN003 OVC013 75 73.9 79 73.9 96% 73 30.08 1018.6 0.77
13 17:53 SW 6 10.00 Light Rain FEW008 SCT065 OVC095 79 75.9 90% 83 30.09 1018.8
13 15:53 SE 5 10.00 Overcast BKN005 OVC012 77 75 94% 78 30.11 1019.7 0.11
13 11:53 SW 5 10.00 Light Rain BKN012 BKN032 OVC070 79 75.9 90% 83 30.16 1021.2 0.03
13 10:53 SW 6 10.00 Overcast SCT011 SCT016 OVC024 79 75.9 90% 83 30.17 1021.6 0.03 0.03
13 08:53 S 7 10.00 Overcast FEW005 OVC015 75.9 73.9 94% 75 30.18 1021.8
Date Time (edt) Wind (mph) Vis. (mi.) Weather Sky Cond. Air Dwpt Max. Min. Relative Humidity Wind Chill (°F) Heat Index (°F) altimeter (in) sea level (mb) 1 hr 3 hr 6 hr
6 hour
Temperature (ºF) Pressure Precipitation (in)